Wind_Speed
11 14 18 20 21 21 21 21 19 13 11 9 13 14 15 17 22 29 35 40 42 42 40 39 39 39 40 41 40 38 37 36 35 35 36 37 38 38 38 38 38 41 44 46
9 12 15 17 18 17 16 15 12 8 5 4 5 5 9 13 16 23 31 36 38 38 37 37 37 38 38 37 36 35 34 34 34 35 37 37 37 37 37 37 40 42 44 47
6 9 12 15 14 13 12 11 9 7 6 4 4 6 9 13 15 21 27 31 34 35 35 35 35 34 34 33 32 32 32 32 34 35 35 35 34 34 36 38 40 43 46 50
9 10 14 13 12 12 11 9 8 8 8 10 11 11 13 16 20 24 26 28 29 30 30 30 30 30 29 28 28 28 30 31 32 32 31 31 32 34 36 39 42 45 48 52
11 12 11 11 12 12 11 10 10 10 10 11 14 15 17 19 21 22 23 25 25 26 25 25 25 25 25 25 26 27 28 28 28 28 28 30 32 34 37 41 44 47 50 53
8 9 10 9 10 11 12 13 14 14 13 12 12 14 16 18 19 20 20 21 23 23 23 24 24 23 23 23 23 23 24 24 24 26 28 30 33 36 40 43 45 48 51 53
4 5 6 6 6 8 11 12 13 13 13 13 12 13 14 14 14 15 16 17 18 19 19 18 18 18 18 19 19 19 20 22 23 25 28 32 35 39 41 44 46 49 52 54
4 3 2 2 2 4 6 6 8 9 9 10 10 11 12 12 12 11 12 13 13 14 14 14 14 14 14 15 16 18 19 21 24 27 31 34 37 39 41 44 47 49 52 54
8 7 5 5 4 3 2 2 2 2 3 3 4 4 4 5 6 6 8 9 9 10 11 11 12 13 13 14 15 17 19 23 26 29 32 35 37 39 42 45 47 49 51 53
11 10 9 8 7 7 6 6 5 4 3 3 2 2 2 3 4 5 6 7 8 9 9 10 10 11 12 13 15 18 21 25 28 31 33 35 37 40 43 45 47 49 51 54
16 13 12 11 9 8 8 7 5 4 4 4 4 5 5 6 7 7 7 8 8 8 8 9 10 11 12 14 17 21 25 28 30 31 33 36 39 41 43 45 46 49 52 56
18 16 14 13 11 10 8 6 5 4 4 5 5 5 5 6 7 7 7 7 7 8 10 11 12 13 15 19 23 25 28 29 30 32 35 37 39 41 42 45 48 51 55 60
17 15 14 13 12 11 10 8 6 4 5 5 5 5 5 6 7 7 8 8 9 10 11 12 14 16 20 23 26 27 28 30 32 34 36 38 39 41 44 48 52 55 60 65
17 15 13 13 13 12 12 10 9 7 7 6 6 5 5 5 7 7 8 8 9 10 11 14 17 20 23 25 26 28 29 31 33 35 36 37 39 43 46 50 55 60 65 70
17 16 14 14 14 14 14 13 12 12 10 8 7 6 5 5 5 6 6 8 10 12 14 17 20 22 24 25 27 29 31 32 34 35 36 39 42 45 49 54 58 63 68 74
18 18 17 16 15 15 15 16 15 14 13 11 10 8 7 6 6 6 8 10 13 16 18 20 21 23 24 26 27 29 31 33 33 35 38 42 45 49 54 58 63 68 73 79
18 19 19 19 18 17 16 15 14 13 12 11 10 9 8 8 8 10 12 15 16 18 20 21 22 23 25 26 28 30 32 32 34 38 41 45 49 53 58 62 67 73 79 82
13 15 16 16 16 15 14 13 11 10 10 10 9 9 9 10 12 13 15 17 18 19 20 21 22 24 26 28 29 30 31 34 37 41 44 48 52 57 61 66 72 78 82 78
10 10 11 12 13 13 12 11 11 10 9 9 9 10 11 13 15 16 17 18 19 20 21 22 23 25 27 28 29 31 34 37 40 44 47 51 56 60 66 72 78 81 77 67
10 10 10 11 12 12 11 11 10 9 9 10 11 12 14 15 17 18 18 19 20 21 21 23 24 26 27 28 30 33 37 40 43 46 50 55 60 65 71 77 80 76 65 50
13 12 12 12 12 12 12 11 11 12 12 14 15 16 17 18 18 19 20 20 21 21 22 24 25 26 27 30 33 36 39 42 46 49 54 59 64 70 76 78 74 64 48 32
16 16 16 16 15 15 15 15 15 16 17 18 18 19 19 19 19 20 20 20 21 22 23 24 25 27 29 32 36 39 42 45 49 54 59 64 70 75 77 73 63 47 31 16
19 19 19 19 19 19 18 18 19 19 19 19 19 19 19 19 19 19 19 20 21 22 23 24 26 29 32 36 38 42 45 49 54 59 64 69 74 77 73 63 47 31 16 2
20 21 21 21 21 21 20 20 20 19 19 19 19 19 19 19 19 19 20 21 22 22 23 26 29 32 35 38 42 45 49 54 59 64 69 74 77 74 63 47 30 15 2 6
21 21 21 21 21 22 21 21 20 20 20 20 19 19 20 20 20 21 21 21 21 23 25 28 31 35 38 41 45 49 53 58 63 69 74 77 74 64 48 30 14 3 7 9
23 22 22 22 23 22 22 21 21 21 21 20 20 20 21 21 22 22 21 21 22 24 27 30 33 37 41 44 48 52 56 62 68 74 77 75 65 48 30 14 4 8 10 10
26 26 25 24 24 23 23 22 22 22 21 21 21 22 22 23 22 21 20 21 23 25 28 32 36 40 43 47 51 55 60 67 73 76 74 64 48 30 14 4 9 12 11 9
Wind_Direction
312 321 326 330 329 326 322 317 314 313 298 265 257 247 228 215 214 210 203 201 202 203 206 208 210 213 217 222 226 231 237 244 252 259 265 269 273 276 279 282 284 286 288 290
330 340 345 343 338 335 335 335 340 339 339 296 254 215 193 193 199 198 194 192 193 196 199 201 206 211 216 221 227 233 241 248 255 262 267 270 273 276 279 282 285 287 290 293
14 9 5 1 350 346 347 353 6 24 43 67 114 139 151 162 167 169 174 177 182 187 192 198 203 208 215 222 230 237 245 252 258 263 267 269 272 276 280 283 286 289 293 296
56 46 37 23 17 13 10 11 34 62 73 85 101 113 122 131 140 147 156 165 173 180 188 195 201 207 215 224 233 241 248 255 260 262 265 268 273 277 281 285 289 293 296 298
69 65 59 51 46 40 38 45 57 71 80 87 93 106 116 125 133 142 152 161 169 177 185 193 201 210 218 227 236 243 248 252 255 260 265 270 275 280 285 289 293 296 299 300
88 89 83 78 68 60 60 62 66 71 74 81 96 107 114 123 135 147 158 166 174 182 190 198 205 213 220 227 233 239 245 251 257 263 269 275 281 286 290 294 296 298 300 301
118 109 103 96 87 75 71 66 71 73 74 75 86 95 108 119 133 143 151 161 170 178 185 192 200 207 215 223 231 239 247 255 263 271 278 284 288 291 294 296 298 299 301 302
211 208 193 165 126 81 63 64 62 63 67 75 82 89 99 104 113 126 139 149 158 168 176 185 194 204 216 228 239 249 259 269 277 283 287 290 292 294 296 298 300 301 303 305
237 238 236 229 242 276 315 338 349 14 38 51 64 76 99 113 127 139 146 153 163 173 184 194 206 218 229 242 256 268 277 283 286 289 291 293 295 297 299 300 302 304 306 308
243 241 241 244 254 267 279 287 291 293 294 294 292 276 249 231 222 215 208 202 201 203 211 222 234 245 257 268 276 282 286 289 291 293 294 296 298 300 302 304 305 307 309 310
246 244 242 244 248 257 266 269 273 279 285 288 283 266 256 249 244 236 230 226 228 234 244 254 262 267 272 279 285 289 293 295 295 296 298 300 302 304 305 307 308 309 310 311
245 244 243 241 241 245 252 250 251 269 286 288 287 274 259 250 246 240 236 237 241 250 260 267 271 276 282 288 293 296 297 298 299 301 302 304 305 307 308 309 310 311 312 313
241 242 240 238 235 237 242 242 246 269 294 293 283 276 267 252 240 236 237 242 251 260 270 278 283 288 293 296 299 300 301 302 303 304 305 306 308 310 311 312 313 314 315 317
238 237 236 234 233 237 241 244 250 268 289 293 282 275 263 244 233 234 241 249 261 272 282 289 294 298 300 301 301 302 303 304 305 306 307 309 311 313 314 314 315 316 317 319
235 233 234 235 236 238 242 248 255 264 274 279 272 262 252 233 227 235 253 269 282 292 298 301 303 304 303 303 303 304 305 305 307 308 310 312 314 315 315 316 317 318 320 322
237 235 237 239 240 242 247 253 258 262 264 264 261 255 242 236 243 263 284 295 301 304 304 305 305 305 304 304 305 305 306 307 309 311 313 315 316 316 317 318 320 321 323 323
236 236 239 241 244 245 248 252 253 252 250 248 247 243 244 253 271 287 296 301 303 304 306 306 306 305 305 305 306 308 309 310 312 314 315 316 317 318 320 321 323 324 324 324
231 234 236 237 235 236 238 236 235 239 239 242 243 250 261 273 285 293 299 302 304 305 307 307 307 306 307 308 309 310 311 313 314 315 317 319 320 321 323 324 326 326 326 325
226 223 219 214 213 216 220 226 232 234 236 241 252 265 277 287 293 297 300 303 305 307 308 308 308 309 309 310 312 313 314 315 316 318 320 321 323 324 326 327 327 327 326 325
219 211 207 207 207 210 215 221 227 234 245 256 268 279 288 293 296 299 302 304 306 308 309 309 310 311 311 312 314 315 316 317 319 321 322 324 325 327 328 328 328 328 327 326
220 217 216 216 218 221 225 233 242 252 262 272 280 286 291 294 297 299 301 304 306 308 309 310 311 312 312 314 315 317 318 319 321 322 324 326 327 328 329 329 329 328 328 328
228 227 228 229 232 236 242 251 259 266 272 278 282 286 289 291 294 297 300 303 305 307 309 310 311 312 313 314 316 318 319 321 322 324 326 327 328 328 329 329 328 328 328 330
233 235 237 239 242 247 253 259 265 269 273 277 280 282 286 289 293 297 300 303 305 307 309 310 312 313 314 316 317 319 321 323 324 325 327 328 328 328 328 327 327 326 327 331
237 240 242 245 248 251 255 258 262 267 271 275 279 282 285 289 292 296 300 303 305 307 309 312 313 315 316 318 319 321 322 324 325 326 327 327 327 326 326 325 324 321 294 158
242 243 245 247 248 250 253 256 260 266 270 274 278 281 285 289 293 297 300 302 305 308 311 313 314 316 318 319 321 323 324 325 326 327 327 326 325 325 324 321 315 262 168 160
246 246 246 247 249 251 253 256 260 265 269 273 277 281 285 289 293 296 299 302 306 309 312 314 316 318 320 322 324 325 326 327 328 328 327 326 325 323 321 312 241 172 164 162
247 247 248 249 251 252 255 257 261 264 268 273 277 281 285 288 290 293 297 302 306 310 313 316 318 321 323 325 327 328 329 329 329 329 328 327 325 322 315 239 170 162 160 160
Height
5602 5597 5592 5586 5579 5572 5564 5557 5549 5544 5539 5536 5533 5532 5533 5535 5539 5545 5554 5564 5576 5588 5599 5608 5617 5624 5631 5637 5642 5647 5652 5655 5657 5658 5659 5658 5657 5655 5653 5650 5647 5644 5640 5636
5598 5594 5588 5583 5577 5570 5563 5556 5550 5544 5539 5536 5533 5532 5533 5535 5539 5544 5552 5562 5574 5585 5596 5604 5613 5620 5627 5633 5639 5643 5647 5649 5651 5652 5651 5650 5649 5647 5644 5641 5638 5634 5630 5626
5596 5592 5588 5582 5577 5571 5565 5559 5553 5547 5544 5539 5537 5535 5535 5537 5541 5546 5555 5564 5575 5585 5594 5602 5610 5617 5624 5629 5634 5638 5641 5643 5644 5644 5643 5642 5640 5638 5635 5632 5629 5625 5620 5615
5594 5592 5586 5585 5578 5573 5567 5563 5558 5554 5550 5547 5544 5543 5543 5545 5549 5555 5562 5571 5579 5587 5595 5603 5609 5616 5621 5626 5630 5633 5635 5636 5637 5636 5635 5634 5632 5629 5627 5623 5620 5615 5609 5603
5592 5590 5588 5586 5580 5576 5572 5568 5564 5561 5558 5556 5554 5553 5554 5556 5559 5564 5570 5577 5583 5590 5597 5603 5609 5614 5619 5622 5625 5627 5628 5629 5629 5629 5627 5626 5624 5622 5618 5614 5610 5604 5598 5592
5593 5592 5590 5588 5584 5580 5578 5574 5571 5568 5567 5565 5564 5564 5565 5565 5568 5572 5577 5582 5587 5593 5598 5603 5607 5611 5614 5617 5619 5621 5622 5623 5622 5622 5621 5619 5616 5613 5609 5604 5599 5593 5587 5580
5594 5593 5591 5590 5587 5585 5584 5582 5578 5576 5574 5573 5573 5573 5573 5573 5575 5578 5581 5585 5589 5593 5597 5601 5604 5608 5611 5613 5615 5616 5617 5617 5616 5615 5614 5611 5608 5604 5599 5594 5589 5583 5576 5569
5593 5593 5595 5591 5589 5588 5587 5584 5583 5582 5580 5580 5579 5579 5579 5580 5581 5583 5585 5588 5591 5594 5597 5600 5603 5606 5608 5610 5611 5612 5612 5611 5610 5609 5606 5603 5599 5595 5590 5584 5578 5572 5564 5557
5593 5595 5593 5591 5590 5589 5588 5587 5586 5585 5585 5584 5584 5584 5584 5585 5586 5587 5589 5590 5593 5595 5597 5600 5602 5604 5605 5606 5607 5607 5606 5605 5604 5601 5598 5594 5590 5585 5580 5574 5568 5561 5554 5546
5590 5591 5591 5590 5590 5589 5589 5588 5587 5586 5586 5586 5586 5586 5586 5587 5588 5589 5590 5592 5594 5595 5597 5599 5601 5602 5602 5602 5602 5602 5601 5599 5597 5594 5590 5586 5581 5575 5570 5564 5557 5550 5543 5534
5587 5588 5588 5589 5589 5589 5588 5588 5587 5587 5586 5586 5586 5586 5587 5587 5588 5589 5590 5591 5593 5595 5596 5597 5598 5598 5599 5599 5598 5597 5595 5592 5589 5585 5581 5576 5571 5566 5560 5553 5546 5539 5531 5522
5584 5585 5586 5586 5586 5587 5587 5587 5587 5587 5586 5586 5585 5585 5586 5586 5587 5588 5589 5591 5592 5593 5594 5595 5595 5595 5595 5594 5593 5591 5588 5585 5581 5577 5572 5567 5562 5556 5549 5543 5535 5527 5518 5508
5580 5581 5582 5583 5584 5585 5585 5586 5586 5586 5585 5585 5584 5584 5584 5585 5585 5587 5588 5590 5591 5592 5592 5592 5592 5592 5590 5589 5586 5583 5580 5576 5572 5568 5563 5558 5552 5546 5539 5531 5522 5513 5503 5493
5576 5578 5579 5580 5581 5582 5583 5584 5584 5584 5584 5583 5583 5583 5583 5583 5584 5585 5587 5588 5589 5589 5589 5589 5588 5586 5584 5581 5579 5575 5572 5568 5564 5560 5554 5549 5543 5536 5529 5521 5511 5501 5490 5478
5573 5574 5576 5577 5578 5579 5580 5581 5582 5582 5582 5582 5582 5582 5582 5582 5583 5584 5585 5586 5586 5585 5585 5583 5582 5580 5577 5574 5571 5568 5564 5560 5556 5551 5546 5540 5533 5526 5518 5509 5500 5489 5478 5464
5568 5570 5572 5573 5575 5576 5577 5578 5578 5579 5579 5579 5579 5580 5580 5581 5582 5582 5583 5583 5582 5581 5579 5578 5576 5573 5570 5567 5564 5561 5557 5552 5547 5542 5536 5530 5523 5516 5507 5497 5487 5475 5462 5449
5563 5565 5567 5569 5571 5572 5573 5574 5575 5575 5575 5576 5577 5578 5578 5579 5579 5579 5579 5578 5577 5576 5574 5572 5569 5567 5564 5561 5557 5553 5549 5544 5539 5533 5527 5521 5513 5504 5495 5484 5473 5460 5445 5431
5559 5561 5562 5564 5566 5568 5569 5570 5571 5572 5573 5574 5575 5576 5576 5576 5576 5575 5575 5573 5572 5570 5568 5566 5563 5560 5557 5553 5549 5545 5540 5535 5530 5524 5518 5510 5502 5492 5482 5471 5458 5444 5428 5411
5556 5557 5559 5560 5562 5564 5566 5567 5568 5569 5570 5571 5572 5573 5573 5572 5572 5571 5569 5568 5566 5564 5562 5559 5556 5553 5550 5546 5542 5537 5532 5527 5521 5515 5508 5499 5490 5480 5468 5456 5442 5427 5411 5396
5554 5555 5557 5558 5560 5562 5563 5565 5566 5567 5567 5568 5569 5568 5568 5568 5567 5565 5564 5562 5560 5558 5556 5553 5550 5546 5542 5538 5534 5530 5525 5519 5512 5505 5497 5488 5478 5466 5454 5440 5425 5410 5395 5384
5551 5553 5554 5556 5557 5559 5560 5561 5562 5563 5564 5564 5564 5564 5563 5562 5561 5560 5558 5557 5555 5552 5549 5546 5543 5539 5535 5531 5527 5522 5517 5510 5503 5495 5486 5476 5464 5452 5438 5424 5409 5396 5385 5376
5548 5549 5551 5552 5554 5555 5556 5557 5558 5558 5559 5559 5559 5558 5557 5556 5555 5554 5553 5551 5548 5545 5543 5539 5536 5533 5529 5524 5520 5514 5508 5501 5493 5484 5474 5463 5450 5437 5423 5409 5397 5386 5378 5373
5543 5545 5546 5548 5549 5550 5551 5552 5553 5553 5553 5553 5553 5552 5551 5551 5550 5548 5546 5544 5541 5539 5536 5533 5530 5526 5522 5517 5512 5505 5498 5490 5481 5472 5461 5449 5436 5422 5409 5397 5387 5379 5374 5372
5538 5539 5540 5542 5543 5544 5545 5546 5546 5547 5547 5547 5547 5546 5545 5544 5543 5542 5540 5537 5535 5532 5529 5526 5523 5519 5515 5509 5503 5496 5488 5479 5469 5459 5447 5434 5421 5407 5396 5386 5379 5374 5373 5372
5532 5533 5534 5536 5537 5538 5538 5539 5540 5541 5541 5541 5540 5540 5539 5538 5537 5535 5533 5531 5528 5526 5523 5520 5516 5512 5507 5501 5494 5486 5477 5468 5457 5445 5432 5418 5404 5392 5383 5377 5373 5372 5372 5373
5525 5526 5527 5529 5530 5531 5532 5533 5534 5534 5534 5534 5534 5533 5532 5531 5530 5528 5526 5524 5522 5520 5517 5513 5509 5504 5499 5492 5484 5476 5466 5455 5443 5430 5416 5402 5389 5379 5373 5370 5369 5370 5372 5373
5517 5518 5520 5521 5522 5524 5525 5526 5527 5527 5527 5527 5527 5526 5525 5524 5523 5521 5520 5518 5516 5513 5510 5506 5502 5496 5490 5483 5474 5465 5455 5443 5429 5414 5399 5386 5375 5369 5366 5366 5368 5370 5372 5374